FW8647 Weather Reports


time (UTC)temp
C
wind
direction
speed
KPH
gust
KPH
rain 1hr
cm
rain 24hr
cm
rain mn
cm
humidity
%
barometer
mb
20260507163725 9 201 0.0 0.0 0.00 0.00 0.00 53 1014.5
20260507162724 9 311 0.0 3.2 0.00 0.00 0.00 54 1014.6
20260507161723 8 175 0.0 1.6 0.00 0.00 0.00 55 1014.7
20260507160720 9 223 3.2 8.0 0.00 0.00 0.00 56 1014.7
20260507155719 9 245 3.2 4.8 0.00 0.00 0.00 53 1014.6
20260507154718 9 208 0.0 0.0 0.00 0.00 0.00 57 1014.9
20260507153717 8 213 4.8 9.7 0.00 0.00 0.00 58 1014.9
20260507152717 9 244 1.6 3.2 0.00 0.00 0.00 57 1014.9
20260507151714 8 228 0.0 0.0 0.00 0.00 0.00 56 1014.9
20260507150714 8 200 0.0 0.0 0.00 0.00 0.00 56 1014.9
20260507145712 8 207 0.0 1.6 0.00 0.00 0.00 59 1014.9
20260507144711 8 210 0.0 0.0 0.00 0.00 0.00 60 1015.1
20260507143706 7 307 0.0 0.0 0.00 0.00 0.00 65 1014.8
20260507142704 7 29 0.0 0.0 0.00 0.00 0.00 64 1015.0
20260507141703 7 195 1.6 1.6 0.00 0.00 0.00 64 1014.9
20260507140702 7 340 0.0 0.0 0.00 0.00 0.00 66 1015.2
20260507135657 7 350 0.0 0.0 0.00 0.00 0.00 68 1015.3
20260507134656 7 320 4.8 8.0 0.00 0.00 0.00 68 1015.4
20260507133654 6 297 0.0 0.0 0.00 0.00 0.00 71 1015.3
20260507132655 6 248 1.6 1.6 0.00 0.00 0.00 71 1015.4
20260507131653 6 260 0.0 0.0 0.00 0.00 0.00 72 1015.4
20260507130653 6 195 0.0 0.0 0.00 0.00 0.00 73 1015.4
20260507125650 6 182 0.0 0.0 0.00 0.00 0.00 73 1015.3
20260507124649 6 192 0.0 0.0 0.00 0.00 0.00 74 1015.5
20260507123645 6 177 0.0 0.0 0.00 0.00 0.00 73 1015.5
20260507122643 5 178 0.0 0.0 0.00 0.00 0.00 74 1015.3
20260507121641 5 183 0.0 0.0 0.00 0.00 0.00 75 1015.5
20260507120639 5 186 0.0 0.0 0.00 0.00 0.00 76 1015.6
20260507115638 5 189 0.0 0.0 0.00 0.00 0.00 76 1015.3
20260507114636 4 152 0.0 0.0 0.00 0.00 0.00 76 1015.3
20260507113631 3 187 0.0 0.0 0.00 0.00 0.00 78 1015.4
20260507112631 3 186 0.0 0.0 0.00 0.00 0.00 80 1015.4
20260507111631 2 182 0.0 0.0 0.00 0.00 0.00 80 1015.3
20260507110629 2 194 0.0 0.0 0.00 0.00 0.00 80 1014.9
20260507105629 2 187 0.0 0.0 0.00 0.00 0.00 81 1014.9
20260507104628 2 186 0.0 0.0 0.00 0.00 0.00 81 1015.0
20260507103626 2 191 0.0 0.0 0.00 0.00 0.00 81 1015.1
20260507102626 2 195 0.0 0.0 0.00 0.00 0.00 81 1014.9
20260507101624 2 201 0.0 0.0 0.00 0.00 0.00 80 1015.0
20260507100623 2 201 0.0 0.0 0.00 0.00 0.00 80 1015.3
20260507095619 2 201 0.0 0.0 0.00 0.00 0.00 79 1015.2
20260507094617 2 201 0.0 0.0 0.00 0.00 0.00 78 1015.0
20260507093612 2 201 0.0 0.0 0.00 0.00 0.00 78 1015.2
20260507092612 2 201 0.0 0.0 0.00 0.00 0.00 77 1015.2
20260507091612 2 201 0.0 0.0 0.00 0.00 0.00 77 1015.3
20260507090609 2 201 0.0 0.0 0.00 0.00 0.00 76 1015.4
20260507085609 3 201 0.0 0.0 0.00 0.00 0.00 76 1015.7
20260507084609 3 201 0.0 1.6 0.00 0.00 0.00 75 1015.3
20260507083608 3 202 0.0 0.0 0.00 0.00 0.00 75 1015.7
20260507082607 3 201 0.0 0.0 0.00 0.00 0.00 76 1015.7
20260507081606 3 205 0.0 0.0 0.00 0.00 0.00 75 1015.7
20260507080605 3 213 8.0 9.7 0.00 0.00 0.00 73 1015.6
20260507075602 4 209 0.0 0.0 0.00 0.00 0.00 73 1015.6
20260507074602 4 185 0.0 0.0 0.00 0.00 0.00 73 1015.5
20260507073602 4 206 0.0 0.0 0.00 0.00 0.00 74 1015.5
20260507072601 5 236 3.2 4.8 0.00 0.00 0.00 75 1015.4
20260507071601 5 237 0.0 0.0 0.00 0.00 0.00 73 1015.3
20260507070600 5 226 0.0 0.0 0.00 0.00 0.00 74 1015.3
20260507065559 5 322 1.6 1.6 0.00 0.00 0.00 74 1015.5
20260507064554 5 306 0.0 0.0 0.00 0.00 0.00 73 1015.3
20260507063549 5 291 0.0 0.0 0.00 0.00 0.00 72 1015.3
20260507062549 5 298 0.0 0.0 0.00 0.00 0.00 71 1015.4
20260507061544 5 226 0.0 0.0 0.00 0.00 0.00 70 1015.4
20260507060540 5 197 0.0 0.0 0.00 0.00 0.00 70 1015.5
20260507055536 5 192 0.0 0.0 0.00 0.00 0.00 67 1015.6
20260507054535 5 182 0.0 0.0 0.00 0.00 0.00 65 1015.6
20260507053530 5 198 0.0 0.0 0.00 0.00 0.00 65 1015.9
20260507052526 5 174 0.0 0.0 0.00 0.00 0.00 65 1016.2
20260507051526 5 184 0.0 0.0 0.00 0.00 0.00 63 1015.8
20260507050524 6 145 0.0 0.0 0.00 0.00 0.00 61 1016.3
20260507045523 6 202 0.0 0.0 0.00 0.00 0.00 62 1015.7
20260507044523 6 192 0.0 0.0 0.00 0.00 0.00 63 1016.0
20260507043522 6 202 0.0 0.0 0.00 0.00 0.00 61 1015.8
20260507042521 6 205 0.0 0.0 0.00 0.00 0.00 59 1016.0
20260507041520 6 197 0.0 0.0 0.00 0.00 0.00 59 1016.2
20260507040519 6 198 0.0 0.0 0.00 0.00 0.00 59 1016.2
20260507035517 6 191 0.0 0.0 0.00 0.36 0.36 58 1015.9
20260507034516 6 195 0.0 0.0 0.00 0.36 0.36 58 1016.0
20260507033512 6 191 0.0 0.0 0.00 0.36 0.36 58 1016.4
20260507032512 6 201 0.0 0.0 0.00 0.36 0.36 57 1016.2
20260507031510 6 208 0.0 0.0 0.00 0.36 0.36 56 1016.3
20260507030510 6 199 0.0 0.0 0.00 0.36 0.36 55 1016.0
20260507025510 6 194 0.0 0.0 0.00 0.36 0.36 54 1016.0
20260507024506 6 198 0.0 0.0 0.00 0.36 0.36 54 1016.0
20260507023504 6 216 0.0 0.0 0.00 0.36 0.36 52 1016.0
20260507022504 6 192 0.0 0.0 0.00 0.36 0.36 51 1015.8
20260507021501 6 215 0.0 0.0 0.00 0.36 0.36 51 1015.9
20260507020501 7 236 0.0 0.0 0.00 0.36 0.36 51 1016.2
20260507015457 6 197 0.0 0.0 0.00 0.36 0.36 51 1015.9
20260507014456 6 252 0.0 0.0 0.00 0.36 0.36 52 1015.8
20260507013454 6 255 0.0 0.0 0.00 0.36 0.36 52 1015.9
20260507012454 6 208 0.0 0.0 0.00 0.36 0.36 53 1016.0
20260507011454 6 208 0.0 0.0 0.00 0.36 0.36 52 1015.9
20260507010450 6 213 0.0 0.0 0.00 0.36 0.36 53 1016.2
20260507005450 6 249 0.0 0.0 0.00 0.36 0.36 53 1015.9
20260507004449 7 315 0.0 0.0 0.00 0.36 0.36 52 1015.8
20260507003448 7 313 0.0 0.0 0.00 0.36 0.36 51 1016.0
20260507002446 7 331 0.0 1.6 0.00 0.36 0.36 50 1015.5
20260507001445 7 327 1.6 3.2 0.00 0.36 0.36 49 1015.5
20260507000444 7 344 4.8 8.0 0.00 0.36 0.36 47 1015.2
20260506235444 7 343 4.8 8.0 0.00 0.36 0.36 47 1015.5
20260506234443 7 312 8.0 11.3 0.00 0.36 0.36 46 1015.3
20260506233442 8 333 3.2 4.8 0.00 0.36 0.36 46 1015.4
20260506232441 8 356 6.4 14.5 0.00 0.36 0.36 46 1015.4
20260506231441 8 330 9.7 16.1 0.00 0.36 0.36 45 1015.6
20260506230440 8 329 0.0 1.6 0.00 0.36 0.36 45 1015.3
20260506225440 8 340 11.3 16.1 0.00 0.36 0.36 44 1015.2
20260506224440 8 308 9.7 14.5 0.00 0.36 0.36 45 1015.4
20260506223437 8 327 8.0 11.3 0.00 0.36 0.36 45 1015.2
20260506222437 8 281 9.7 16.1 0.00 0.36 0.36 45 1015.6
20260506221437 8 310 9.7 12.9 0.00 0.36 0.36 45 1015.3
20260506220436 8 341 9.7 14.5 0.00 0.36 0.36 45 1015.0
20260506215435 8 326 8.0 9.7 0.00 0.36 0.36 48 1015.0
20260506214434 8 290 6.4 12.9 0.00 0.36 0.36 49 1014.8
20260506213429 8 321 9.7 14.5 0.00 0.36 0.36 50 1014.8
20260506212427 8 313 8.0 14.5 0.00 0.36 0.36 50 1014.6
20260506211423 8 4 6.4 11.3 0.00 0.36 0.36 52 1014.7
20260506210422 8 21 6.4 12.9 0.00 0.36 0.36 53 1014.3
20260506205420 8 272 8.0 11.3 0.00 0.36 0.36 53 1014.4
20260506204420 8 311 11.3 16.1 0.00 0.36 0.36 52 1014.3
20260506203420 8 305 9.7 12.9 0.00 0.36 0.36 53 1014.3
20260506202420 9 330 11.3 17.7 0.00 0.36 0.36 52 1014.1
20260506201420 8 322 11.3 16.1 0.00 0.36 0.36 53 1014.0
20260506200418 8 252 4.8 8.0 0.00 0.36 0.36 53 1014.4
20260506195418 8 345 14.5 17.7 0.00 0.36 0.36 52 1014.1
20260506194418 10 35 6.4 9.7 0.00 0.36 0.36 52 1014.0
20260506193418 9 327 9.7 17.7 0.00 0.36 0.36 53 1014.1
20260506192417 9 313 6.4 9.7 0.00 0.36 0.36 53 1014.0
20260506191416 9 343 8.0 11.3 0.00 0.36 0.36 52 1014.1
20260506190415 9 249 9.7 16.1 0.00 0.36 0.36 54 1014.3
20260506185416 9 259 6.4 9.7 0.00 0.36 0.36 55 1014.2
20260506184415 10 302 8.0 14.5 0.00 0.36 0.36 56 1014.0
20260506183414 9 33 11.3 14.5 0.00 0.36 0.36 55 1014.0
20260506182414 9 283 8.0 12.9 0.00 0.36 0.36 55 1013.7
20260506181409 10 272 3.2 4.8 0.00 0.36 0.36 56 1013.6
20260506180408 10 347 3.2 4.8 0.00 0.36 0.36 57 1013.5
20260506175408 9 5 6.4 9.7 0.00 0.36 0.36 59 1013.8
20260506174402 9 288 6.4 9.7 0.00 0.36 0.36 60 1014.0
20260506173401 8 302 3.2 4.8 0.00 0.36 0.36 62 1013.4
20260506172401 9 323 11.3 16.1 0.00 0.36 0.36 63 1013.2
20260506171356 9 336 14.5 24.1 0.00 0.36 0.36 64 1013.2
20260506170355 9 337 8.0 16.1 0.00 0.36 0.36 65 1013.4
20260506165352 9 268 11.3 14.5 0.00 0.36 0.36 67 1013.4